M0SDM Weather Reports


Display with metric or nautical units.
time (UTC)temp
F
wind
direction
speed
MPH
gust
MPH
rain 1hr
in
rain 24hr
in
rain mn
in
humidity
%
barometer
mb
20260508055521 48 159 0.0 2.0 0.00 0.00 0.00 94 1016.2
20260508054021 48 137 0.0 2.0 0.00 0.00 0.00 94 1016.2
20260508052521 47 178 0.0 2.0 0.00 0.00 0.00 94 1015.9
20260508051021 48 163 0.0 2.0 0.00 0.00 0.00 93 1015.6
20260508045521 48 152 0.0 2.0 0.00 0.00 0.00 93 1015.8
20260508044021 48 139 0.0 2.0 0.00 0.00 0.00 93 1015.7
20260508042521 48 141 0.0 2.0 0.00 0.00 0.00 93 1016.0
20260508041021 48 149 0.0 2.0 0.00 0.00 0.00 93 1015.6
20260508035521 48 147 1.0 2.0 0.00 0.00 0.00 92 1015.5
20260508034021 48 153 0.0 4.0 0.00 0.00 0.00 92 1015.4
20260508032521 48 137 0.0 2.0 0.00 0.00 0.00 92 1015.6
20260508031021 48 181 0.0 2.0 0.00 0.00 0.00 92 1015.5
20260508025521 48 172 0.0 4.0 0.00 0.00 0.00 92 1015.5
20260508024021 47 171 1.0 4.0 0.00 0.00 0.00 91 1015.5
20260508022521 48 187 1.0 4.0 0.00 0.00 0.00 91 1015.6
20260508021021 48 172 2.0 4.0 0.00 0.00 0.00 91 1015.3
20260508015521 48 190 1.0 4.0 0.00 0.00 0.00 90 1015.4
20260508014021 48 160 0.0 4.0 0.00 0.00 0.00 89 1015.4
20260508012521 48 155 0.0 2.0 0.00 0.00 0.00 89 1015.4
20260508011021 48 126 0.0 2.0 0.00 0.00 0.00 88 1015.3
20260508005521 48 196 0.0 4.0 0.00 0.00 0.00 88 1015.4
20260508004021 49 200 0.0 2.0 0.00 0.00 0.00 87 1015.3
20260508002521 49 112 0.0 4.0 0.00 0.00 0.00 87 1015.5
20260508001021 49 193 1.0 2.0 0.00 0.00 0.00 86 1015.6
20260507235521 49 198 1.0 4.0 0.00 0.00 0.00 86 1015.7
20260507234021 49 148 0.0 4.0 0.00 0.00 0.00 85 1015.4
20260507232521 49 126 0.0 2.0 0.00 0.00 0.00 85 1015.6
20260507231021 49 113 0.0 4.0 0.00 0.00 0.00 83 1015.4
20260507225521 50 122 2.0 4.0 0.00 0.00 0.00 82 1015.5
20260507224021 50 167 0.0 4.0 0.00 0.00 0.00 82 1015.6
20260507222521 50 153 0.0 4.0 0.00 0.00 0.00 81 1015.7
20260507221021 50 162 1.0 4.0 0.00 0.00 0.00 80 1015.3
20260507215521 50 163 1.0 4.0 0.00 0.00 0.00 80 1015.3
20260507214021 50 88 2.0 2.0 0.00 0.00 0.00 80 1015.2
20260507212521 50 166 0.0 4.0 0.00 0.00 0.00 79 1015.3
20260507211021 51 112 0.0 2.0 0.00 0.00 0.00 76 1015.1
20260507205521 51 131 1.0 4.0 0.00 0.00 0.00 75 1015.1
20260507204021 52 116 0.0 2.0 0.00 0.00 0.00 73 1014.8
20260507202521 52 147 0.0 2.0 0.00 0.00 0.00 72 1014.6
20260507201021 53 130 0.0 2.0 0.00 0.00 0.00 71 1014.4
20260507195521 53 101 0.0 2.0 0.00 0.00 0.00 70 1014.3
20260507194021 54 157 0.0 2.0 0.00 0.00 0.00 69 1013.9
20260507192521 54 117 0.0 2.0 0.00 0.00 0.00 68 1013.7
20260507191021 54 136 1.0 2.0 0.00 0.00 0.00 66 1013.6
20260507185521 55 146 0.0 4.0 0.00 0.00 0.00 65 1013.6
20260507184021 55 77 1.0 4.0 0.00 0.00 0.00 63 1013.4
20260507182521 56 86 0.0 2.0 0.00 0.00 0.00 61 1013.0
20260507181021 57 186 1.0 4.0 0.00 0.00 0.00 60 1013.0
20260507175521 57 104 1.0 6.0 0.00 0.00 0.00 59 1012.9
20260507174021 57 165 1.0 6.0 0.00 0.00 0.00 57 1012.8
20260507172521 59 154 1.0 6.0 0.00 0.00 0.00 55 1013.0
20260507171021 59 134 1.0 6.0 0.00 0.00 0.00 56 1012.6
20260507165521 58 160 2.0 6.0 0.00 0.00 0.00 55 1012.7
20260507164021 58 196 2.0 4.0 0.00 0.00 0.00 55 1012.8
20260507162521 58 110 3.0 4.0 0.00 0.00 0.00 54 1012.7
20260507161021 60 139 1.0 2.0 0.00 0.00 0.00 51 1012.5
20260507155521 60 184 1.0 4.0 0.00 0.00 0.00 50 1012.9
20260507154021 59 159 0.0 2.0 0.00 0.00 0.00 51 1013.2
20260507152521 59 150 0.0 2.0 0.00 0.00 0.00 56 1013.3
20260507151021 58 139 1.0 4.0 0.00 0.00 0.00 57 1013.4
20260507145521 57 203 2.0 4.0 0.00 0.00 0.00 59 1013.4
20260507144021 57 186 2.0 4.0 0.00 0.00 0.00 59 1013.6
20260507142522 57 173 0.0 4.0 0.00 0.00 0.00 59 1013.0
20260507141021 58 174 1.0 4.0 0.00 0.00 0.00 57 1013.3
20260507135521 58 154 1.0 4.0 0.00 0.00 0.00 57 1013.2
20260507134021 60 180 1.0 4.0 0.00 0.00 0.00 52 1013.1
20260507132521 61 199 0.0 4.0 0.00 0.00 0.00 52 1013.1
20260507131021 59 127 2.0 4.0 0.00 0.00 0.00 55 1013.2
20260507125521 58 118 0.0 7.0 0.00 0.00 0.00 56 1013.2
20260507124021 61 166 1.0 6.0 0.00 0.00 0.00 51 1013.4
20260507122521 61 197 2.0 4.0 0.00 0.00 0.00 53 1013.3
20260507121021 61 167 0.0 4.0 0.00 0.00 0.00 54 1013.6
20260507115521 59 196 1.0 7.0 0.00 0.00 0.00 57 1014.0
20260507114021 58 168 1.0 4.0 0.00 0.00 0.00 59 1014.2
20260507112521 58 217 2.0 4.0 0.00 0.00 0.00 62 1014.3
20260507111021 58 171 2.0 4.0 0.00 0.00 0.00 61 1014.7
20260507105521 56 153 2.0 4.0 0.00 0.00 0.00 65 1014.8
20260507104021 56 104 2.0 4.0 0.00 0.00 0.00 65 1015.2
20260507102521 55 176 1.0 4.0 0.00 0.00 0.00 66 1015.4
20260507101021 53 126 1.0 4.0 0.00 0.00 0.00 73 1015.6
20260507095521 53 178 2.0 4.0 0.00 0.00 0.00 74 1015.6
20260507094021 52 179 0.0 4.0 0.00 0.00 0.00 75 1015.8
20260507092521 52 134 2.0 4.0 0.00 0.00 0.00 74 1015.7
20260507091021 51 169 1.0 4.0 0.00 0.00 0.00 77 1016.0
20260507090550 52 190 1.0 4.0 0.00 0.00 0.00 75 1015.9
20260507085521 52 190 1.0 4.0 0.00 0.00 0.00 75 1015.9
20260507084021 51 176 0.0 4.0 0.00 0.00 0.00 77 1016.2
20260507082521 51 165 2.0 4.0 0.00 0.00 0.00 78 1016.3
20260507081021 51 180 2.0 4.0 0.00 0.00 0.00 77 1016.7
20260507075521 51 153 1.0 4.0 0.00 0.00 0.00 78 1016.5
20260507074021 49 194 2.0 4.0 0.00 0.00 0.00 82 1016.8
20260507072521 49 182 0.0 4.0 0.00 0.00 0.00 83 1016.8
20260507071021 48 169 0.0 2.0 0.00 0.00 0.00 85 1016.5
20260507065521 48 150 0.0 2.0 0.00 0.00 0.00 87 1016.6
20260507064021 45 148 0.0 2.0 0.00 0.00 0.00 96 1016.6
20260507062521 42 112 0.0 2.0 0.00 0.00 0.00 96 1016.6
20260507061021 40 0 0.0 0.0 0.00 0.00 0.00 96 1016.5